Tracking 29892 objects as of 21-Nov-2024
HD Live streaming from Space Station
objects crossing your sky now

COSMOS 1275 DEB

Track COSMOS 1275 DEB now!
10-day predictions


NORAD ID: 39961
Int'l Code: 1981-053PD
Perigee: 882.1 km
Apogee: 963.8 km
Inclination: 82.8 °
Period: 103.3 minutes
Semi major axis: 7293 km
RCS: 0.0155 m2 (small)
Launch date: April 25, 1981
Source: Commonwealth of Independent States (former USSR) (CIS)
Launch site: PLESETSK MISSILE AND SPACE COMPLEX (PKMTR)

Note: This is SATELLITE DEBRIS
Your satellite tracking list
Your tracking list is empty




NASA's NSSDC Master Catalog

Two Line Element Set (TLE):
1 39961U 81053NX  24321.27468843  .00002648  00000-0  19780-2 0  9996
2 39961  82.7724 307.1796 0056014 157.0786 264.5668 13.93656261529918
Source of the keplerian elements: AFSPC